sat.trackr.live / text

‹ back to catalog

STARLINK-30969

NORAD 58438 · 2023-183B

PAYLOAD ACTIVE UNKNOWN

§ Identity

Operator
Country
US
Launch date
2023-11-28
Launch site
AFETR
Launch vehicle
Mass (kg)
RCS (m²)

Purposes: comms

External: N2YO · Heavens-Above · Gunter

§ Orbital elements

Epoch: 2026-09-20T17:39:06.775776Z

Period
94.27 min
Inclination
43.0021°
Eccentricity
0.0000950
Mean motion
15.27581607 rev/d
Perigee alt
482.4 km
Apogee alt
483.7 km
Semi-major
6,861.2 km
B*
1.3124e-5
RAAN
20.1393°
Arg perigee
256.8170°
Mean anomaly
103.2575°
Rev number
15,656

§ Raw data

STARLINK-309691 58438U 23183B   26263.73549509  .00000099  00000+0  13124-4 0  99982 58438  43.0021  20.1393 0000950 256.8170 103.2575 15.27581607156569

JSON: /api/v1/satellites/58438 · /tle

For live sub-satellite position, see the globe view (requires WebGL).

§ Visibility from observer

Set your observer location to see the next 7 days of passes ≥ 10°. The values pass through the URL so the page stays shareable.

No JS? Fill the form by hand. The geolocation button needs JavaScript.